Date,TemperatureHighF,TemperatureAvgF,TemperatureLowF,DewpointHighF,DewpointAvgF,DewpointLowF,HumidityHigh,HumidityAvg,HumidityLow,PressureMaxIn,PressureMinIn,WindSpeedMaxMPH,WindSpeedAvgMPH,GustSpeedMaxMPH,PrecipitationSumIn
2013-9-1,84.5,33.0,75.7,70.0,-33.5,-99.9,79,22,44,29.94,29.69,10,-592,0,0.00
2013-9-2,80.2,44.1,56.6,61.0,-0.0,-99.9,96,43,39,30.06,29.95,4,-361,0,0.04
2013-9-3,80.2,63.6,49.2,60.0,54.4,48.0,98,75,44,30.16,30.06,6,1,0,0.00
2013-9-4,89.0,74.0,57.4,67.0,60.2,54.0,88,65,40,30.18,30.08,7,1,0,0.00
2013-9-5,92.8,79.0,66.3,71.0,66.7,63.0,90,68,43,30.20,30.11,5,0,0,0.00
2013-9-6,91.4,78.1,63.5,68.0,63.1,59.0,93,64,35,30.15,29.97,8,2,0,0.00
2013-9-7,97.1,81.8,72.4,74.0,68.4,63.0,86,65,41,29.97,29.83,11,2,0,0.00
2013-9-8,91.3,79.1,69.7,76.0,72.3,68.0,96,81,60,29.92,29.83,1,0,0,0.00
2013-9-9,99.5,84.9,72.0,72.0,67.8,63.0,95,61,32,29.87,29.79,13,4,0,0.00
2013-9-10,96.9,85.6,74.3,69.0,64.9,63.0,71,51,34,29.99,29.87,12,4,0,0.00
2013-9-11,85.1,77.8,72.3,72.0,68.9,66.0,90,74,62,30.09,29.99,8,1,0,0.01
2013-9-12,79.8,70.5,58.8,68.0,55.4,47.0,94,63,33,30.19,30.06,12,1,0,0.00
2013-9-13,76.2,61.2,50.1,52.0,47.6,43.0,89,65,31,30.27,30.14,4,0,0,0.00
2013-9-14,77.9,62.3,45.5,49.0,45.5,41.0,87,58,31,30.18,29.96,10,2,0,0.00
2013-9-15,67.8,62.3,52.6,65.0,57.2,51.0,95,84,62,30.26,29.91,14,2,0,1.15
2013-9-16,62.7,55.7,50.6,57.0,53.2,50.0,98,92,78,30.41,30.26,2,0,0,0.01
2013-9-17,64.4,57.7,52.1,63.0,56.2,51.0,97,95,89,30.31,30.05,7,1,0,0.11
2013-9-19,85.8,74.5,64.6,73.0,67.8,63.0,97,81,62,29.88,29.69,18,4,0,1.09
2013-9-20,67.8,60.9,53.2,65.0,54.3,49.0,97,80,60,30.00,29.87,13,3,0,0.00
2013-9-21,71.9,57.5,46.0,52.0,47.2,43.0,89,71,45,30.07,29.95,8,1,0,0.00
2013-9-22,78.0,61.9,46.5,56.0,51.3,45.0,96,71,45,30.04,29.93,9,1,0,0.00
2013-9-23,77.3,63.1,49.1,57.0,51.8,47.0,94,70,42,30.02,29.89,10,2,0,0.00
2013-9-24,78.5,63.5,52.9,61.0,55.1,49.0,88,75,50,29.94,29.85,2,0,0,0.00
2013-9-25,80.6,65.2,50.7,62.0,56.6,49.0,96,76,51,29.97,29.87,7,0,0,0.00
2013-9-26,84.9,70.6,55.9,66.0,60.6,53.0,91,72,49,29.98,29.90,16,3,0,0.00
2013-9-27,86.0,74.0,63.5,67.0,62.6,60.0,89,69,48,30.02,29.90,11,4,0,0.00
2013-9-28,69.4,62.6,52.2,66.0,59.0,51.0,97,88,76,30.08,29.83,17,3,0,0.21
2013-9-29,74.0,60.1,47.9,54.0,49.2,46.0,98,71,39,30.13,29.98,7,2,0,0.01
2013-9-30,77.5,64.0,51.1,60.0,53.2,48.0,90,70,44,29.98,29.80,16,4,0,0.00